K6OUA-11 Weather Reports


Display with metric or nautical units.
time (UTC)temp
F
wind
direction
speed
MPH
gust
MPH
rain 1hr
in
rain 24hr
in
rain mn
in
humidity
%
barometer
mb
20210724183823 78 315 5.0 7.0 0.00 0.00 0.00 64 1010.7
20210724183221 76 292 1.0 5.0 0.00 0.00 0.00 66 1010.9
20210724182017 75 315 7.0 8.0 0.00 0.00 0.00 67 1010.8
20210724181522 75 292 5.0 9.0 0.00 0.00 0.00 68 1010.9
20210724181414 75 292 5.0 9.0 0.00 0.00 0.00 68 1010.9
20210724181115 75 285 6.0 9.0 0.00 0.00 0.00 68 1010.9
20210724180813 74 315 3.0 9.0 0.00 0.00 0.00 69 1010.9
20210724180511 74 315 8.0 9.0 0.00 0.00 0.00 70 1010.8
20210724175909 73 270 4.0 9.0 0.00 0.00 0.00 71 1010.9
20210724175608 73 270 6.0 8.0 0.00 0.00 0.00 71 1010.9
20210724175307 73 270 4.0 9.0 0.00 0.00 0.00 71 1010.9
20210724175005 73 270 6.0 6.0 0.00 0.00 0.00 71 1010.9
20210724174704 73 270 4.0 5.0 0.00 0.00 0.00 72 1011.0
20210724174102 73 270 6.0 6.0 0.00 0.00 0.00 72 1011.0
20210724173801 73 270 4.0 6.0 0.00 0.00 0.00 72 1011.0
20210724173501 73 308 3.0 5.0 0.00 0.00 0.00 73 1010.8
20210724172858 73 315 5.0 7.0 0.00 0.00 0.00 73 1010.8
20210724172734 73 315 3.0 4.0 0.00 0.00 0.00 75 1010.8
20210724172556 73 315 3.0 4.0 0.00 0.00 0.00 75 1010.8
20210724171955 72 292 2.0 3.0 0.00 0.00 0.00 76 1011.0
20210724171653 71 292 3.0 6.0 0.00 0.00 0.00 77 1010.9
20210724170750 70 315 7.0 8.0 0.00 0.00 0.00 77 1010.8
20210724165847 69 270 3.0 7.0 0.00 0.00 0.00 79 1010.9
20210724165245 69 270 4.0 9.0 0.00 0.00 0.00 80 1010.9
20210724164944 68 337 6.0 8.0 0.00 0.00 0.00 81 1010.9
20210724164642 68 315 8.0 8.0 0.00 0.00 0.00 82 1010.9
20210724164341 68 315 4.0 8.0 0.00 0.00 0.00 82 1011.0
20210724164041 67 315 5.0 8.0 0.00 0.00 0.00 82 1011.1
20210724163739 67 292 6.0 6.0 0.00 0.00 0.00 83 1011.1
20210724163138 67 315 3.0 8.0 0.00 0.00 0.00 84 1011.0
20210724162836 66 315 5.0 9.0 0.00 0.00 0.00 84 1010.9
20210724162535 66 315 7.0 7.0 0.00 0.00 0.00 85 1011.0
20210724161933 66 315 5.0 7.0 0.00 0.00 0.00 85 1011.1
20210724161633 66 315 4.0 7.0 0.00 0.00 0.00 86 1011.1
20210724161332 66 315 4.0 6.0 0.00 0.00 0.00 86 1011.2
20210724161030 65 315 4.0 8.0 0.00 0.00 0.00 87 1011.1
20210724160729 65 294 2.0 6.0 0.00 0.00 0.00 87 1010.9
20210724160427 65 315 5.0 7.0 0.00 0.00 0.00 88 1011.0
20210724160126 64 315 3.0 9.0 0.00 0.00 0.00 88 1010.9
20210724155825 64 315 5.0 9.0 0.00 0.00 0.00 88 1010.9
20210724155526 64 315 4.0 4.0 0.00 0.00 0.00 89 1011.0
20210724155222 64 315 2.0 6.0 0.00 0.00 0.00 90 1011.3
20210724154923 64 315 4.0 6.0 0.00 0.00 0.00 90 1011.4
20210724154623 63 315 3.0 5.0 0.00 0.00 0.00 90 1011.1
20210724154320 63 315 2.0 6.0 0.00 0.00 0.00 90 1011.0
20210724154018 63 315 6.0 6.0 0.00 0.00 0.00 90 1011.1
20210724153718 63 315 3.0 5.0 0.00 0.00 0.00 90 1011.3
20210724152814 62 315 2.0 4.0 0.00 0.00 0.00 91 1011.2
20210724152207 62 315 4.0 5.0 0.00 0.00 0.00 92 1011.2
20210724151906 62 315 5.0 5.0 0.00 0.00 0.00 93 1011.1
20210724151303 61 315 0.0 3.0 0.00 0.00 0.00 92 1010.8
20210724150701 61 315 0.0 1.0 0.00 0.00 0.00 93 1010.8
20210724150114 61 315 1.0 2.0 0.00 0.00 0.00 93 1010.7
20210724150100 61 315 3.0 5.0 0.00 0.00 0.00 93 1010.8
20210724145757 61 315 1.0 2.0 0.00 0.00 0.00 93 1010.7
20210724145709 60 315 2.0 2.0 0.00 0.00 0.00 93 1010.7
20210724145456 60 315 2.0 2.0 0.00 0.00 0.00 93 1010.7
20210724145156 60 315 1.0 3.0 0.00 0.00 0.00 93 1010.6
20210724144854 60 315 1.0 2.0 0.00 0.00 0.00 93 1010.5
20210724144253 60 315 1.0 2.0 0.00 0.00 0.00 93 1010.4
20210724143650 60 315 2.0 2.0 0.00 0.00 0.00 93 1010.3
20210724143349 59 315 0.0 2.0 0.00 0.00 0.00 93 1010.3
20210724143048 59 315 0.0 1.0 0.00 0.00 0.00 93 1010.0
20210724142445 59 315 0.0 1.0 0.00 0.00 0.00 93 1009.9
20210724142145 59 315 1.0 1.0 0.00 0.00 0.00 93 1010.0
20210724141542 58 315 0.0 0.0 0.00 0.00 0.00 93 1010.0
20210724141358 58 315 0.0 1.0 0.00 0.00 0.00 93 1009.8
20210724141241 58 315 0.0 1.0 0.00 0.00 0.00 93 1009.8
20210724140639 58 315 1.0 1.0 0.00 0.00 0.00 93 1009.7
20210724140338 58 315 0.0 1.0 0.00 0.00 0.00 93 1009.8
20210724140037 58 315 1.0 1.0 0.00 0.00 0.00 93 1009.8
20210724135736 58 339 0.0 0.0 0.00 0.00 0.00 93 1009.8
20210724135434 58 292 0.0 2.0 0.00 0.00 0.00 94 1009.8
20210724134832 58 292 0.0 0.0 0.00 0.00 0.00 93 1009.8
20210724134531 58 0 0.0 0.0 0.00 0.00 0.00 94 1009.8
20210724133929 58 0 0.0 1.0 0.00 0.00 0.00 93 1009.8
20210724133627 58 353 0.0 1.0 0.00 0.00 0.00 93 1009.8
20210724133327 58 0 0.0 0.0 0.00 0.00 0.00 93 1009.7
20210724133026 58 353 0.0 0.0 0.00 0.00 0.00 93 1009.9
20210724132725 58 339 0.0 1.0 0.00 0.00 0.00 93 1010.1
20210724132423 58 326 1.0 2.0 0.00 0.00 0.00 93 1010.0
20210724130918 58 312 0.0 0.0 0.00 0.00 0.00 93 1009.8
20210724130617 58 326 0.0 2.0 0.00 0.00 0.00 93 1009.7
20210724130316 58 312 2.0 2.0 0.00 0.00 0.00 93 1009.5
20210724130015 58 312 0.0 0.0 0.00 0.00 0.00 93 1009.6
20210724125713 58 306 0.0 1.0 0.00 0.00 0.00 92 1009.6
20210724124810 58 299 1.0 1.0 0.00 0.00 0.00 93 1009.4
20210724124509 58 292 0.0 1.0 0.00 0.00 0.00 93 1009.4
20210724124208 58 292 0.0 3.0 0.00 0.00 0.00 93 1009.5
20210724123900 58 292 1.0 1.0 0.00 0.00 0.00 93 1009.5
20210724123606 58 292 1.0 1.0 0.00 0.00 0.00 93 1009.5
20210724123412 58 292 0.0 0.0 0.00 0.00 0.00 93 1009.4
20210724123304 58 292 0.0 0.0 0.00 0.00 0.00 93 1009.4
20210724123005 58 292 0.0 0.0 0.00 0.00 0.00 93 1009.3
20210724122401 58 292 0.0 1.0 0.00 0.00 0.00 92 1009.3
20210724122100 58 292 0.0 1.0 0.00 0.00 0.00 93 1009.3
20210724121453 58 299 0.0 0.0 0.00 0.00 0.00 92 1009.3
20210724121153 58 292 0.0 0.0 0.00 0.00 0.00 93 1009.4
20210724120552 58 292 0.0 1.0 0.00 0.00 0.00 93 1009.3
20210724120248 58 292 0.0 1.0 0.00 0.00 0.00 93 1009.2
20210724115948 58 299 0.0 0.0 0.00 0.00 0.00 93 1009.3
20210724115044 58 292 0.0 1.0 0.00 0.00 0.00 93 1009.5
20210724114442 58 292 1.0 1.0 0.00 0.00 0.00 93 1009.4
20210724114141 58 292 0.0 1.0 0.00 0.00 0.00 93 1009.5
20210724114133 58 292 0.0 1.0 0.00 0.00 0.00 93 1009.6
20210724113840 58 292 0.0 1.0 0.00 0.00 0.00 93 1009.5
20210724113538 58 292 0.0 1.0 0.00 0.00 0.00 93 1009.6
20210724113237 58 292 1.0 1.0 0.00 0.00 0.00 92 1009.6
20210724112936 58 337 1.0 2.0 0.00 0.00 0.00 92 1009.5
20210724112033 58 337 0.0 0.0 0.00 0.00 0.00 93 1009.9
20210724111431 58 344 0.0 1.0 0.00 0.00 0.00 93 1009.9
20210724111129 58 339 0.0 1.0 0.00 0.00 0.00 93 1009.9
20210724110528 58 0 2.0 2.0 0.00 0.00 0.00 93 1009.9
20210724110226 58 0 0.0 1.0 0.00 0.00 0.00 92 1009.9
20210724105925 58 0 0.0 1.0 0.00 0.00 0.00 92 1010.0
20210724105625 58 292 0.0 1.0 0.00 0.00 0.00 92 1010.1
20210724105323 58 292 0.0 1.0 0.00 0.00 0.00 92 1010.1
20210724105022 58 292 0.0 1.0 0.00 0.00 0.00 91 1010.1
20210724104720 58 299 0.0 2.0 0.00 0.00 0.00 92 1010.1
20210724104119 58 292 2.0 4.0 0.00 0.00 0.00 92 1010.2
20210724103516 58 292 2.0 3.0 0.00 0.00 0.00 92 1010.3
20210724103215 58 292 2.0 3.0 0.00 0.00 0.00 92 1010.1
20210724102915 58 299 1.0 2.0 0.00 0.00 0.00 91 1010.1
20210724102613 58 292 0.0 1.0 0.00 0.00 0.00 91 1010.3
20210724102312 58 292 0.0 1.0 0.00 0.00 0.00 91 1010.3
20210724102011 58 299 0.0 1.0 0.00 0.00 0.00 91 1010.5
20210724101710 58 339 0.0 1.0 0.00 0.00 0.00 92 1010.3
20210724101409 58 0 0.0 1.0 0.00 0.00 0.00 92 1010.2
20210724101108 58 0 0.0 1.0 0.00 0.00 0.00 91 1010.5
20210724094358 58 225 1.0 1.0 0.00 0.00 0.00 91 1010.5
20210724094057 58 225 0.0 0.0 0.00 0.00 0.00 89 1010.6
20210724093756 58 225 0.0 1.0 0.00 0.00 0.00 90 1010.6
20210724093454 58 225 1.0 1.0 0.00 0.00 0.00 91 1010.5
20210724093153 58 225 0.0 2.0 0.00 0.00 0.00 90 1010.6
20210724092852 57 225 2.0 2.0 0.00 0.00 0.00 90 1010.5
20210724092551 57 225 1.0 1.0 0.00 0.00 0.00 90 1010.6
20210724092250 57 225 0.0 1.0 0.00 0.00 0.00 91 1010.7
20210724091647 57 225 1.0 1.0 0.00 0.00 0.00 91 1010.6
20210724091047 57 225 1.0 1.0 0.00 0.00 0.00 90 1010.6
20210724090142 58 225 1.0 2.0 0.00 0.00 0.00 90 1010.8
20210724085540 58 292 0.0 1.0 0.00 0.00 0.00 89 1010.7
20210724085239 58 292 1.0 2.0 0.00 0.00 0.00 89 1010.6
20210724084637 58 315 1.0 4.0 0.00 0.00 0.00 89 1010.7
20210724084336 58 315 4.0 4.0 0.00 0.00 0.00 89 1010.8
20210724084034 58 315 4.0 4.0 0.00 0.00 0.00 89 1010.7
20210724083734 58 315 3.0 3.0 0.00 0.00 0.00 89 1010.7
20210724083432 58 315 1.0 1.0 0.00 0.00 0.00 88 1010.7
20210724083131 58 315 0.0 1.0 0.00 0.00 0.00 88 1010.6
20210724082529 58 315 1.0 1.0 0.00 0.00 0.00 89 1010.6
20210724082229 58 315 1.0 1.0 0.00 0.00 0.00 88 1010.6
20210724081926 58 315 1.0 1.0 0.00 0.00 0.00 88 1010.4
20210724081324 59 315 2.0 2.0 0.00 0.00 0.00 88 1010.5
20210724080722 59 315 2.0 4.0 0.00 0.00 0.00 88 1010.4
20210724080120 59 315 2.0 3.0 0.00 0.00 0.00 88 1010.4
20210724075819 59 315 2.0 3.0 0.00 0.00 0.00 88 1010.5
20210724075216 59 315 2.0 3.0 0.00 0.00 0.00 88 1010.5
20210724074916 59 315 2.0 3.0 0.00 0.00 0.00 87 1010.6
20210724074314 59 315 2.0 3.0 0.00 0.00 0.00 86 1010.5
20210724073711 60 315 2.0 2.0 0.00 0.00 0.00 86 1010.5
20210724073410 60 315 1.0 1.0 0.00 0.00 0.00 86 1010.6
20210724073110 60 315 1.0 2.0 0.00 0.00 0.00 86 1010.6
20210724072808 60 315 2.0 3.0 0.00 0.00 0.00 86 1010.4
20210724072507 60 315 2.0 5.0 0.00 0.00 0.00 86 1010.4
20210724071904 60 315 4.0 4.0 0.00 0.00 0.00 86 1010.4
20210724071603 60 315 3.0 4.0 0.00 0.00 0.00 86 1010.5
20210724071302 60 315 3.0 4.0 0.00 0.00 0.00 86 1010.4
20210724071001 60 315 3.0 4.0 0.00 0.00 0.00 85 1010.5
20210724070359 60 315 1.0 2.0 0.00 0.00 0.00 85 1010.5
20210724070057 60 315 1.0 2.0 0.00 0.00 0.00 85 1010.4
20210724065756 60 315 1.0 2.0 0.00 0.00 0.00 85 1010.5
20210724064251 60 315 2.0 4.0 0.00 0.00 0.00 85 1010.3
20210724063950 60 315 3.0 4.0 0.00 0.00 0.00 85 1010.4
20210724063649 60 315 2.0 2.0 0.00 0.00 0.00 85 1010.4
20210724063348 60 315 2.0 2.0 0.00 0.00 0.00 85 1010.3
20210724063047 60 315 1.0 2.0 0.00 0.00 0.00 85 1010.5
20210724062746 60 315 1.0 3.0 0.00 0.00 0.00 85 1010.5
20210724062144 60 315 2.0 2.0 0.00 0.00 0.00 84 1010.4
20210724061541 60 315 1.0 1.0 0.00 0.00 0.00 84 1010.5
20210724060643 60 315 0.0 1.0 0.00 0.00 0.00 84 1010.5
20210724060036 60 315 1.0 1.0 0.00 0.00 0.00 83 1010.6
20210724055735 60 315 1.0 1.0 0.00 0.00 0.00 83 1010.5
20210724055434 60 315 0.0 1.0 0.00 0.00 0.00 82 1010.5
20210724055133 60 315 1.0 1.0 0.00 0.00 0.00 82 1010.6
20210724054831 60 315 0.0 1.0 0.00 0.00 0.00 82 1010.7
20210724054230 60 315 0.0 0.0 0.00 0.00 0.00 81 1010.8
20210724053928 60 315 0.0 0.0 0.00 0.00 0.00 81 1010.7
20210724053627 60 315 0.0 0.0 0.00 0.00 0.00 82 1010.8
20210724053325 61 315 0.0 1.0 0.00 0.00 0.00 81 1010.7
20210724053026 61 315 0.0 1.0 0.00 0.00 0.00 81 1010.9
20210724052724 61 315 0.0 1.0 0.00 0.00 0.00 81 1010.7
20210724052122 61 315 0.0 1.0 0.00 0.00 0.00 81 1010.9
20210724051820 61 315 0.0 0.0 0.00 0.00 0.00 80 1010.8
20210724051519 61 315 0.0 1.0 0.00 0.00 0.00 79 1010.8
20210724050720 62 315 0.0 0.0 0.00 0.00 0.00 79 1011.0
20210724050616 62 315 0.0 0.0 0.00 0.00 0.00 79 1011.0
20210724050014 62 315 0.0 1.0 0.00 0.00 0.00 79 1011.3
20210724045712 62 315 0.0 1.0 0.00 0.00 0.00 79 1011.2
20210724045411 62 315 1.0 1.0 0.00 0.00 0.00 79 1011.2
20210724045110 63 315 1.0 1.0 0.00 0.00 0.00 79 1011.2
20210724044809 63 315 1.0 2.0 0.00 0.00 0.00 79 1011.5
20210724044202 63 315 1.0 2.0 0.00 0.00 0.00 79 1011.1
20210724043901 63 315 1.0 2.0 0.00 0.00 0.00 79 1011.0
20210724043559 63 315 2.0 4.0 0.00 0.00 0.00 78 1011.0
20210724042656 63 315 2.0 3.0 0.00 0.00 0.00 78 1011.1
20210724042355 64 315 2.0 5.0 0.00 0.00 0.00 77 1011.0
20210724041753 64 315 4.0 4.0 0.00 0.00 0.00 77 1010.7
20210724041452 64 315 3.0 3.0 0.00 0.00 0.00 76 1010.9
20210724041151 64 315 3.0 4.0 0.00 0.00 0.00 76 1010.8
20210724040850 64 315 2.0 4.0 0.00 0.00 0.00 76 1010.6
20210724040248 65 315 4.0 4.0 0.00 0.00 0.00 75 1010.7
20210724035946 65 292 4.0 4.0 0.00 0.00 0.00 75 1010.7
20210724034742 66 353 4.0 5.0 0.00 0.00 0.00 74 1010.7
20210724034441 66 326 4.0 5.0 0.00 0.00 0.00 73 1010.7
20210724034140 66 357 3.0 3.0 0.00 0.00 0.00 73 1010.7
20210724033838 66 315 3.0 4.0 0.00 0.00 0.00 72 1010.5
20210724031730 67 315 3.0 5.0 0.00 0.00 0.00 70 1010.5
20210724031430 68 315 3.0 5.0 0.00 0.00 0.00 70 1010.5
20210724031129 68 315 2.0 3.0 0.00 0.00 0.00 69 1010.5
20210724030527 68 315 3.0 4.0 0.00 0.00 0.00 68 1010.3
20210724030225 69 315 3.0 4.0 0.00 0.00 0.00 68 1010.3
20210724025924 69 315 2.0 4.0 0.00 0.00 0.00 67 1010.3
20210724025623 69 315 3.0 4.0 0.00 0.00 0.00 67 1010.3
20210724025322 70 315 2.0 5.0 0.00 0.00 0.00 66 1010.4
20210724025021 70 315 3.0 5.0 0.00 0.00 0.00 65 1010.0
20210724024720 70 315 4.0 4.0 0.00 0.00 0.00 65 1010.3
20210724024419 70 315 3.0 5.0 0.00 0.00 0.00 65 1010.1
20210724024119 71 315 4.0 5.0 0.00 0.00 0.00 65 1010.2
20210724023516 71 315 3.0 5.0 0.00 0.00 0.00 64 1010.3
20210724023214 72 315 3.0 6.0 0.00 0.00 0.00 64 1010.3
20210724022913 72 315 3.0 6.0 0.00 0.00 0.00 64 1010.2
20210724022612 72 315 3.0 5.0 0.00 0.00 0.00 63 1010.2
20210724021107 74 315 3.0 7.0 0.00 0.00 0.00 61 1010.2
20210724020806 74 315 3.0 7.0 0.00 0.00 0.00 61 1010.1
20210724015602 74 315 3.0 6.0 0.00 0.00 0.00 59 1010.1
20210724014056 76 315 5.0 6.0 0.00 0.00 0.00 58 1009.9
20210724013758 76 315 4.0 6.0 0.00 0.00 0.00 58 1010.0
20210724013454 76 315 5.0 7.0 0.00 0.00 0.00 57 1010.0
20210724013153 76 315 3.0 9.0 0.00 0.00 0.00 57 1009.8
20210724012851 77 315 4.0 9.0 0.00 0.00 0.00 56 1009.9
20210724012551 77 315 5.0 6.0 0.00 0.00 0.00 56 1010.0
20210724011948 78 315 4.0 7.0 0.00 0.00 0.00 56 1010.0
20210724010443 79 315 5.0 7.0 0.00 0.00 0.00 55 1009.8
20210724010142 79 315 3.0 8.0 0.00 0.00 0.00 54 1009.8
20210724005840 80 315 4.0 8.0 0.00 0.00 0.00 54 1009.7
20210724005238 81 315 6.0 6.0 0.00 0.00 0.00 53 1009.8
20210724004937 81 315 4.0 7.0 0.00 0.00 0.00 52 1010.0
20210724004637 81 315 4.0 7.0 0.00 0.00 0.00 52 1009.8
20210724004335 81 315 5.0 6.0 0.00 0.00 0.00 52 1009.9
20210724004034 82 315 5.0 7.0 0.00 0.00 0.00 52 1009.8
20210724003733 82 315 5.0 7.0 0.00 0.00 0.00 52 1009.7
20210724003432 82 315 6.0 7.0 0.00 0.00 0.00 51 1009.9
20210724003131 83 270 6.0 7.0 0.00 0.00 0.00 52 1009.9
20210724002830 83 270 6.0 7.0 0.00 0.00 0.00 51 1009.8
20210724002529 83 270 4.0 6.0 0.00 0.00 0.00 51 1009.8
20210724001926 83 292 6.0 9.0 0.00 0.00 0.00 51 1009.8
20210724001324 83 270 6.0 7.0 0.00 0.00 0.00 51 1009.7
20210724001022 83 270 4.0 7.0 0.00 0.00 0.00 51 1009.9
20210724000722 83 270 4.0 7.0 0.00 0.00 0.00 51 1009.9
20210724000120 84 270 5.0 8.0 0.00 0.00 0.00 50 1009.9
20210723235819 84 270 7.0 10.0 0.00 0.00 0.00 51 1009.9
20210723235216 84 270 3.0 6.0 0.00 0.00 0.00 51 1009.9
20210723234915 84 294 4.0 6.0 0.00 0.00 0.00 51 1009.9
20210723234614 84 303 4.0 9.0 0.00 0.00 0.00 50 1010.0
20210723234013 84 315 6.0 12.0 0.00 0.00 0.00 50 1009.9
20210723233711 84 315 4.0 7.0 0.00 0.00 0.00 50 1009.9
20210723233410 84 315 4.0 9.0 0.00 0.00 0.00 50 1009.9
20210723232808 84 315 6.0 7.0 0.00 0.00 0.00 50 1009.9
20210723231904 85 315 5.0 9.0 0.00 0.00 0.00 50 1010.1
20210723231302 85 315 4.0 6.0 0.00 0.00 0.00 49 1010.2
20210723230359 85 180 3.0 10.0 0.00 0.00 0.00 50 1010.3
20210723225154 85 315 8.0 14.0 0.00 0.00 0.00 49 1010.3
20210723224552 86 315 9.0 11.0 0.00 0.00 0.00 49 1010.3
20210723224251 86 315 6.0 11.0 0.00 0.00 0.00 49 1010.3
20210723223649 86 315 4.0 12.0 0.00 0.00 0.00 49 1010.5
20210723223047 86 180 6.0 8.0 0.00 0.00 0.00 49 1010.7
20210723221842 86 180 6.0 9.0 0.00 0.00 0.00 49 1010.8
20210723221240 86 315 6.0 7.0 0.00 0.00 0.00 49 1010.7
20210723220638 86 315 8.0 9.0 0.00 0.00 0.00 49 1010.7
20210723215434 86 180 6.0 9.0 0.00 0.00 0.00 49 1010.7
20210723215135 86 180 7.0 9.0 0.00 0.00 0.00 49 1010.7
20210723214831 86 180 5.0 8.0 0.00 0.00 0.00 49 1010.8
20210723214530 86 180 6.0 8.0 0.00 0.00 0.00 49 1010.9
20210723214229 86 180 6.0 8.0 0.00 0.00 0.00 49 1010.9
20210723213927 86 315 5.0 9.0 0.00 0.00 0.00 49 1010.8
20210723213325 86 315 7.0 10.0 0.00 0.00 0.00 49 1011.0
20210723213024 86 315 8.0 9.0 0.00 0.00 0.00 49 1011.0
20210723212422 87 180 6.0 8.0 0.00 0.00 0.00 48 1011.1
20210723212121 87 180 5.0 6.0 0.00 0.00 0.00 49 1011.1
20210723211519 87 180 4.0 7.0 0.00 0.00 0.00 49 1011.0
20210723211219 86 180 4.0 5.0 0.00 0.00 0.00 49 1011.1
20210723210314 86 180 6.0 9.0 0.00 0.00 0.00 49 1011.0
20210723205411 86 180 5.0 10.0 0.00 0.00 0.00 49 1011.0
20210723204809 86 180 4.0 5.0 0.00 0.00 0.00 51 1010.9
20210723204508 85 180 4.0 7.0 0.00 0.00 0.00 51 1011.0
20210723204207 85 180 4.0 8.0 0.00 0.00 0.00 51 1011.0
20210723203905 85 180 6.0 8.0 0.00 0.00 0.00 51 1011.1
20210723203605 85 180 3.0 7.0 0.00 0.00 0.00 51 1011.1
20210723203304 84 180 3.0 5.0 0.00 0.00 0.00 52 1011.2
20210723203003 84 180 4.0 8.0 0.00 0.00 0.00 51 1011.1
20210723202400 84 315 7.0 12.0 0.00 0.00 0.00 52 1011.0
20210723201758 84 315 5.0 8.0 0.00 0.00 0.00 52 1011.2
20210723201457 84 292 6.0 7.0 0.00 0.00 0.00 52 1011.3
20210723201155 84 315 5.0 7.0 0.00 0.00 0.00 52 1011.3
20210723195952 84 315 6.0 8.0 0.00 0.00 0.00 52 1011.4
20210723195349 84 315 6.0 10.0 0.00 0.00 0.00 52 1011.2
20210723195048 84 315 6.0 10.0 0.00 0.00 0.00 52 1011.3
20210723194446 83 315 6.0 9.0 0.00 0.00 0.00 52 1011.4
20210723194144 83 315 6.0 8.0 0.00 0.00 0.00 52 1011.5
20210723193843 83 315 5.0 9.0 0.00 0.00 0.00 52 1011.4
20210723193242 83 315 5.0 9.0 0.00 0.00 0.00 52 1011.4
20210723192639 83 315 7.0 8.0 0.00 0.00 0.00 52 1011.4
20210723192338 83 270 6.0 12.0 0.00 0.00 0.00 52 1011.3
20210723192037 83 270 9.0 9.0 0.00 0.00 0.00 53 1011.3
20210723191435 83 270 6.0 11.0 0.00 0.00 0.00 52 1011.4
20210723191134 83 270 6.0 11.0 0.00 0.00 0.00 52 1011.3
20210723190532 83 270 9.0 9.0 0.00 0.00 0.00 53 1011.4
20210723190231 83 270 5.0 9.0 0.00 0.00 0.00 52 1011.4
20210723185929 83 270 8.0 9.0 0.00 0.00 0.00 53 1011.3
20210723185630 83 270 5.0 10.0 0.00 0.00 0.00 52 1011.4
20210723185026 83 270 5.0 7.0 0.00 0.00 0.00 52 1011.3
20210723184423 83 270 7.0 7.0 0.00 0.00 0.00 53 1011.2
20210723184123 83 270 6.0 8.0 0.00 0.00 0.00 53 1011.2